KC5LIO Fairhope AL US current weather conditions

sailwx.info

Wind from 335 at 4 knots gusting 8

Air temperature 16.1° C
Dewpoint 4.8° C

Last reported at 2019-Nov-15 20:02 UTC.
Time now 2019-Nov-15 20:52 UTC

Location: N 30°31' W 087°49'.
View on Google Maps.

See reports from other nearby stations

  
Tides and Currents Weather Stations Pressure Air Temp Water Temp Dewpoint Dewpoint Depression Visibility Wind Speed Wind Dir Waves Ship Positions
date/time (UTC)wind fromknots sea level pressurealtimeterstation pressurevisibilityair tempwater tempwave heightnotes
2019-Nov-15 20:02 335 4 gusting 8 16.1
2019-Nov-15 19:47 269 4 gusting 10 15.6
2019-Nov-15 19:32 306 6 gusting 10 16.7
2019-Nov-15 19:17 359 6 gusting 8 16.1
2019-Nov-15 19:02 153 5 gusting 10 16.1
2019-Nov-15 18:47 062 5 gusting 10 16.1
2019-Nov-15 18:32 090 5 gusting 11 16.1
2019-Nov-15 18:17 250 6 gusting 8 16.1
2019-Nov-15 18:02 343 2 gusting 8 16.1
2019-Nov-15 17:47 260 5 gusting 10 15.6
2019-Nov-15 17:32 346 5 gusting 10 15.6
2019-Nov-15 17:17 022 4 gusting 10 15.0
2019-Nov-15 17:02 022 4 gusting 8 15.0
2019-Nov-15 16:47 005 5 gusting 11 13.9
2019-Nov-15 16:32 270 2 gusting 10 13.9
2019-Nov-15 16:17 023 6 gusting 10 13.3
2019-Nov-15 16:02 045 4 gusting 11 13.3
2019-Nov-15 15:47 053 6 gusting 8 12.2
2019-Nov-15 15:32 11.7
2019-Nov-15 15:17 022 7 gusting 11 11.7
2019-Nov-15 15:02 003 6 gusting 12 11.1
2019-Nov-15 14:47 353 5 gusting 7 10.0
2019-Nov-15 14:32 053 3 gusting 8 10.0
2019-Nov-15 14:17 022 4 gusting 8 9.4
2019-Nov-15 14:02 154 2 gusting 7 8.9
2019-Nov-15 13:47 330 4 gusting 8 8.3
2019-Nov-15 13:32 022 5 gusting 7 7.8
2019-Nov-15 13:17 347 4 gusting 6 7.2
2019-Nov-15 13:02 252 3 gusting 6 6.7
2019-Nov-15 12:47 314 2 gusting 6 6.1
2019-Nov-15 12:32 296 4 gusting 7 5.6
2019-Nov-15 12:17 293 2 gusting 6 6.1
2019-Nov-15 12:02 045 2 gusting 6 6.1
2019-Nov-15 11:47 309 2 gusting 7 6.1
2019-Nov-15 11:32 288 3 gusting 6 6.1
2019-Nov-15 11:17 292 3 gusting 7 6.1
2019-Nov-15 11:02 329 4 gusting 11 6.1
2019-Nov-15 10:47 272 2 gusting 5 6.1
2019-Nov-15 10:32 303 2 gusting 6 6.1
2019-Nov-15 10:17 054 2 gusting 5 6.1
2019-Nov-15 10:02 279 4 gusting 5 6.7
2019-Nov-15 09:47 302 2 gusting 6 6.7
2019-Nov-15 09:32 030 2 gusting 4 6.7
2019-Nov-15 09:17 329 2 gusting 6 6.7
2019-Nov-15 09:02 353 1 gusting 6 6.7
2019-Nov-15 08:47 179 2 gusting 6 6.7
2019-Nov-15 08:32 310 2 gusting 5 6.7
2019-Nov-15 08:17 082 3 gusting 6 6.7
2019-Nov-15 08:02 290 2 gusting 4 6.7
2019-Nov-15 07:47 316 2 gusting 5 6.7
2019-Nov-15 07:32 336 1 gusting 5 6.7
2019-Nov-15 07:17 293 1 gusting 5 6.7
2019-Nov-15 07:02 010 5 gusting 6 6.7
2019-Nov-15 06:47 033 4 gusting 7 6.7
2019-Nov-15 06:32 333 2 gusting 5 6.7
2019-Nov-15 06:17 314 2 gusting 6 6.7
2019-Nov-15 06:02 293 5 gusting 7 6.7
2019-Nov-15 05:47 351 3 gusting 6 6.7
2019-Nov-15 05:32 348 4 gusting 6 6.7
2019-Nov-15 05:17 005 2 gusting 4 6.7
2019-Nov-15 05:02 267 1 gusting 5 6.7
2019-Nov-15 04:47 022 3 gusting 5 6.7
2019-Nov-15 04:32 349 2 gusting 5 6.7
2019-Nov-15 04:17 036 4 gusting 6 6.7
2019-Nov-15 04:02 324 1 gusting 5 6.7
2019-Nov-15 03:47 294 1 gusting 5 6.7
2019-Nov-15 03:32 285 2 gusting 6 6.7
2019-Nov-15 03:17 020 3 gusting 6 6.7
2019-Nov-15 03:02 045 2 gusting 6 6.7
2019-Nov-15 02:47 034 3 gusting 6 6.7
2019-Nov-15 02:32 273 3 gusting 6 6.7
2019-Nov-15 02:17 278 1 gusting 6 7.2
2019-Nov-15 02:02 035 2 gusting 5 7.2
2019-Nov-15 01:47 023 4 gusting 6 7.2
2019-Nov-15 01:32 044 4 gusting 6 7.2
2019-Nov-15 01:17 031 4 gusting 6 7.2
2019-Nov-15 01:02 022 1 gusting 7 7.2
2019-Nov-15 00:47 042 4 gusting 6 7.8
2019-Nov-15 00:32 298 4 gusting 6 7.8
2019-Nov-15 00:17 347 5 gusting 7 7.8
2019-Nov-15 00:02 016 1 gusting 5 7.8
2019-Nov-14 23:47 026 3 gusting 5 7.8
2019-Nov-14 23:32 8.3
2019-Nov-14 23:17 327 1 gusting 5 8.3
2019-Nov-14 23:02 310 2 gusting 6 8.9
2019-Nov-14 22:47 334 1 gusting 5 8.9
2019-Nov-14 22:32 027 3 gusting 6 9.4
2019-Nov-14 22:17 270 2 gusting 6 10.0
2019-Nov-14 22:02 293 2 gusting 6 10.6
2019-Nov-14 21:47 317 1 gusting 2 10.6
2019-Nov-14 21:32 308 1 gusting 1 11.1
2019-Nov-14 21:17 257 0 gusting 4 11.1
2019-Nov-14 21:02 246 2 gusting 4 11.1
2019-Nov-14 20:47 279 2 gusting 6 11.1
2019-Nov-14 20:32 035 2 gusting 5 11.1
2019-Nov-14 20:17 315 2 gusting 5 11.1
2019-Nov-14 20:02 004 2 gusting 6 11.1
2019-Nov-14 19:47 276 0 gusting 2 11.1
2019-Nov-14 19:32 046 1 gusting 4 10.6
2019-Nov-14 19:17 348 1 gusting 1 10.6
2019-Nov-14 19:02 298 0 gusting 2 11.1
2019-Nov-14 18:47 351 1 gusting 4 11.7
2019-Nov-14 18:32 035 2 gusting 4 11.7
2019-Nov-14 18:17 032 2 gusting 5 11.1
2019-Nov-14 18:02 066 4 gusting 5 10.6
2019-Nov-14 17:47 047 2 gusting 4 11.1
2019-Nov-14 17:32 301 1 gusting 4 10.6
2019-Nov-14 17:17 075 1 gusting 4 10.0
2019-Nov-14 17:02 056 1 gusting 5 10.0
2019-Nov-14 16:47 033 3 gusting 5 10.0
2019-Nov-14 16:32 9.4
2019-Nov-14 16:17 041 1 gusting 4 10.0
2019-Nov-14 16:02 060 2 gusting 6 9.4
2019-Nov-14 15:47 043 2 gusting 6 9.4
2019-Nov-14 15:32 9.4
2019-Nov-14 15:17 047 4 gusting 5 9.4
2019-Nov-14 15:02 031 4 gusting 6 9.4
2019-Nov-14 14:47 043 2 gusting 5 8.3
2019-Nov-14 14:32 058 5 gusting 6 8.3
2019-Nov-14 14:17 045 4 gusting 5 8.3
2019-Nov-14 14:02 358 2 gusting 5 7.8
2019-Nov-14 13:47 042 4 gusting 5 7.8
2019-Nov-14 13:32 009 1 gusting 5 7.8
2019-Nov-14 13:17 044 2 gusting 6 6.7
2019-Nov-14 13:02 054 4 gusting 6 6.7
2019-Nov-14 12:47 019 2 gusting 5 6.1
2019-Nov-14 12:32 068 2 gusting 6 6.1
2019-Nov-14 12:17 057 2 gusting 5 5.6
2019-Nov-14 12:02 029 1 gusting 2 5.6
2019-Nov-14 11:47 027 1 gusting 2 5.6
2019-Nov-14 11:32 033 1 gusting 2 6.1
2019-Nov-14 11:17 052 1 gusting 1 6.1
2019-Nov-14 11:02 049 2 gusting 2 6.1
2019-Nov-14 10:47 079 1 gusting 4 6.1
2019-Nov-14 10:32 059 2 gusting 5 6.1
2019-Nov-14 10:17 028 1 gusting 4 6.1
2019-Nov-14 10:02 056 1 gusting 4 6.1
2019-Nov-14 09:47 038 1 gusting 4 6.7
2019-Nov-14 09:32 6.7
2019-Nov-14 09:17 070 2 gusting 6 6.7
2019-Nov-14 09:02 069 2 gusting 6 6.7
2019-Nov-14 08:47 063 3 gusting 6 6.7
2019-Nov-14 08:32 057 2 gusting 5 6.7
2019-Nov-14 08:17 073 1 gusting 5 6.7
2019-Nov-14 08:02 045 2 gusting 5 6.7
2019-Nov-14 07:47 068 3 gusting 5 6.7
2019-Nov-14 07:32 058 3 gusting 6 6.7
2019-Nov-14 07:17 050 2 gusting 5 6.7
2019-Nov-14 07:02 029 3 gusting 5 6.7
2019-Nov-14 06:47 066 1 gusting 5 6.1
2019-Nov-14 06:32 080 2 gusting 4 6.1
2019-Nov-14 06:17 016 1 gusting 4 5.6
2019-Nov-14 06:02 315 1 gusting 4 5.0
2019-Nov-14 05:47 313 1 gusting 1 5.0
2019-Nov-14 05:32 319 0 gusting 1 4.4
2019-Nov-14 05:17 292 0 gusting 1 3.9
2019-Nov-14 05:02 283 1 gusting 1 3.9
2019-Nov-14 04:47 270 0 gusting 1 3.9
2019-Nov-14 04:32 292 1 gusting 1 3.9
2019-Nov-14 04:17 290 0 gusting 1 3.9
2019-Nov-14 04:02 316 1 gusting 2 3.9
2019-Nov-14 03:47 040 0 gusting 0 3.9
2019-Nov-14 03:32 044 0 gusting 0 3.9
2019-Nov-14 03:17 041 0 gusting 0 3.3
2019-Nov-14 03:02 286 0 gusting 0 3.3
2019-Nov-14 02:47 052 3.3
2019-Nov-14 02:32 315 2.8
2019-Nov-14 02:17 2.8
2019-Nov-14 02:02 292 3.3
2019-Nov-14 01:47 270 0 gusting 0 3.9
2019-Nov-14 01:32 315 3.9
2019-Nov-14 01:17 002 0 gusting 0 3.9
2019-Nov-14 01:02 315 0 gusting 0 3.9
2019-Nov-14 00:47 310 3.3
2019-Nov-14 00:32 277 3.9
2019-Nov-14 00:17 315 3.9
2019-Nov-14 00:02 297 0 gusting 0 4.4
2019-Nov-13 23:47 292 0 gusting 0 5.0
2019-Nov-13 23:32 278 0 gusting 0 5.0
2019-Nov-13 23:17 292 5.6
2019-Nov-13 23:02 270 0 gusting 0 6.7
2019-Nov-13 22:47 292 7.8
2019-Nov-13 22:32 292 8.3
2019-Nov-13 22:17 270 8.9
2019-Nov-13 22:02 257 1 gusting 2 10.0
2019-Nov-13 21:47 287 1 gusting 4 10.0
2019-Nov-13 21:32 282 1 gusting 4 10.0
2019-Nov-13 21:17 008 1 gusting 4 10.0
2019-Nov-13 21:02 260 1 gusting 4 10.0
2019-Nov-13 20:47 329 3 gusting 5 10.6
2019-Nov-13 20:32 316 3 gusting 5 10.6
2019-Nov-13 20:17 297 2 gusting 4 10.0
2019-Nov-13 20:02 131 1 gusting 5 10.0